This is the latest recevied weather packets stored in our database for station/object N4DWK. If no packets are shown the sender has not sent any weather packets the latest 10 day(s).
| Time | Temp. | Humidity | Pressure | Rain* | Wind** | Luminosity | Snow |
|---|---|---|---|---|---|---|---|
| 1778148305 | 13.33° C | 92% | 1010.8 hPa | 1.02 mm | - | 0 W/m² | - |
| 1778148004 | 13.33° C | 92% | 1011 hPa | 1.02 mm | - | 0 W/m² | - |
| 1778147705 | 13.33° C | 92% | 1011.1 hPa | 1.02 mm | - | 0 W/m² | - |
| 1778147406 | 13.89° C | 92% | 1011.1 hPa | 1.02 mm | - | 0 W/m² | - |
| 1778147105 | 13.89° C | 92% | 1010.9 hPa | 1.02 mm | - | 0 W/m² | - |
| 1778146805 | 13.89° C | 92% | 1010.9 hPa | 1.02 mm | - | 0 W/m² | - |
| 1778146505 | 13.89° C | 92% | 1011 hPa | 1.02 mm | - | 0 W/m² | - |
| 1778146206 | 13.89° C | 92% | 1011.2 hPa | 1.02 mm | - | 0 W/m² | - |
| 1778145904 | 13.89° C | 92% | 1011.1 hPa | 1.02 mm | - | 0 W/m² | - |
| 1778145604 | 13.89° C | 92% | 1010.9 hPa | 0.25 mm | - | 0 W/m² | - |
| 1778145305 | 14.44° C | 91% | 1010.9 hPa | 0 mm | - | 0 W/m² | - |
| 1778145005 | 14.44° C | 91% | 1010.7 hPa | 0 mm | - | 0 W/m² | - |
| 1778144703 | 14.44° C | 91% | 1010.7 hPa | 0 mm | - | 0 W/m² | - |
| 1778144405 | 14.44° C | 91% | 1010.7 hPa | 0 mm | - | 0 W/m² | - |
| 1778144105 | 15° C | 91% | 1010.7 hPa | 0 mm | - | 0 W/m² | - |
| 1778143804 | 15° C | 91% | 1010.7 hPa | 0 mm | - | 0 W/m² | - |
| 1778143505 | 15° C | 91% | 1010.6 hPa | 0 mm | - | 0 W/m² | - |
| 1778143205 | 15.56° C | 90% | 1010.5 hPa | 0 mm | - | 0 W/m² | - |
| 1778142904 | 15.56° C | 89% | 1010.5 hPa | 0 mm | - | 0 W/m² | - |
| 1778142605 | 16.11° C | 89% | 1010.4 hPa | 0 mm | - | 0 W/m² | - |
| 1778142304 | 16.67° C | 88% | 1010.1 hPa | 0 mm | - | 0 W/m² | - |
| 1778142004 | 17.22° C | 88% | 1010.2 hPa | 0 mm | - | 0 W/m² | - |
| 1778141704 | 18.33° C | 90% | 1010.3 hPa | 0 mm | - | 0 W/m² | - |
| 1778141404 | 18.89° C | 91% | 1010.2 hPa | 0 mm | - | 0 W/m² | - |
| 1778141104 | 19.44° C | 92% | 1010 hPa | 0 mm | - | 0 W/m² | - |
* Rain latest hour (hover to see other rain measurements)
** Current wind speed in m/s (hover to see current wind gust speed)